This is the latest recevied weather packets stored in our database for station/object KD7AWQ. If no packets are shown the sender has not sent any weather packets the latest 10 day(s).
| Time | Temp. | Humidity | Pressure | Rain* | Wind** | Luminosity | Snow |
|---|---|---|---|---|---|---|---|
| 1777516022 | 21.11° C | 12% | 1183.2 hPa | 0 mm | - | 0 W/m² | - |
| 1777515720 | 21.11° C | 12% | 1183.2 hPa | 0 mm | - | 0 W/m² | - |
| 1777515416 | 21.11° C | 12% | 1183 hPa | 0 mm | - | 0 W/m² | - |
| 1777515113 | 21.67° C | 12% | 1183.1 hPa | 0 mm | - | 1 W/m² | - |
| 1777514809 | 21.11° C | 12% | 1182.9 hPa | 0 mm | - | 1 W/m² | - |
| 1777514507 | 21.67° C | 12% | 1182.8 hPa | 0 mm | - | 2 W/m² | - |
| 1777514204 | 21.67° C | 12% | 1182.9 hPa | 0 mm | - | 3 W/m² | - |
| 1777513900 | 21.67° C | 12% | 1183 hPa | 0 mm | - | 5 W/m² | - |
| 1777513597 | 21.67° C | 11% | 1182.8 hPa | 0 mm | - | 7 W/m² | - |
| 1777512990 | 21.67° C | 11% | 1182.6 hPa | 0 mm | - | 17 W/m² | - |
| 1777512383 | 22.22° C | 11% | 1182.8 hPa | 0 mm | - | 30 W/m² | - |
| 1777512080 | 22.22° C | 11% | 1182.9 hPa | 0 mm | - | 39 W/m² | - |
| 1777511778 | 22.22° C | 11% | 1182.9 hPa | 0 mm | - | 43 W/m² | - |
| 1777511475 | 22.22° C | 11% | 1183 hPa | 0 mm | - | 50 W/m² | - |
| 1777511172 | 22.22° C | 11% | 1182.9 hPa | 0 mm | - | 71 W/m² | - |
| 1777510868 | 22.78° C | 11% | 1182.8 hPa | 0 mm | - | 64 W/m² | - |
| 1777510565 | 22.78° C | 11% | 1182.8 hPa | 0 mm | - | 96 W/m² | - |
| 1777509350 | 22.78° C | 10% | 1182.4 hPa | 0 mm | - | 124 W/m² | - |
| 1777509047 | 23.33° C | 10% | 1182.8 hPa | 0 mm | - | 136 W/m² | - |
| 1777508744 | 23.33° C | 10% | 1182.8 hPa | 0 mm | - | 171 W/m² | - |
| 1777507835 | 23.33° C | 10% | 1183.1 hPa | 0 mm | - | 121 W/m² | - |
| 1777507532 | 23.89° C | 10% | 1182.8 hPa | 0 mm | - | 149 W/m² | - |
| 1777507229 | 23.89° C | 10% | 1182.6 hPa | 0 mm | - | 152 W/m² | - |
* Rain latest hour (hover to see other rain measurements)
** Current wind speed in m/s (hover to see current wind gust speed)